Regional Weather Roundup
Issued by NWS Charleston, WV

Home | Current Version | Previous Version | Text Only | Print | Product List | Glossary On
Versions: 1 2 3 4 5 6 7 8 9 10 11 12 13 14 15 16 17 18 19 20 21 22 23 24 25 26 27 28 29 30 31 32 33 34 35 36 37 38 39 40 41 42 43 44 45 46 47 48 49 50
000
ASUS41 KRLX 041110
RWRRLX
West Virginia Regional Weather Roundup
National Weather Service Charleston WV
600 AM EST WED MAR 04 2015

Note: "fair" indicates few or no clouds below 12,000 feet with no
significant weather and/or obstructions to visibility.

WVZ003-041200-
Northern Panhandle of West Virginia

CITY           SKY/WX    TMP DP  RH WIND       PRES   REMARKS
WHEELING       LGT RAIN  35  34  96 W6        29.88R FOG
$$

WVZ009-041200-
Northwest West Virginia

CITY           SKY/WX    TMP DP  RH WIND       PRES   REMARKS
PARKERSBURG    LGT RAIN  39  37  92 CALM      29.94S FOG
$$

WVZ006-041200-
Western West Virginia

CITY           SKY/WX    TMP DP  RH WIND       PRES   REMARKS
HUNTINGTON     LGT RAIN  44  44 100 NW5       29.93R FOG
$$

WVZ015-041200-
West Central West Virginia

CITY           SKY/WX    TMP DP  RH WIND       PRES   REMARKS
CHARLESTON     LGT RAIN  49  47  93 NE3       29.90R FOG
$$

WVZ022-031-041200-
North Central West Virginia

CITY           SKY/WX    TMP DP  RH WIND       PRES   REMARKS
CLARKSBURG     LGT RAIN  43  41  93 W6        29.90R
MORGANTOWN     LGT RAIN  43  38  82 S7        29.90R
$$

WVZ025-035-042-045-041200-
Southern West Virginia

CITY           SKY/WX    TMP DP  RH WIND       PRES   REMARKS
BECKLEY        LGT RAIN  47  46  97 NW3       29.89R VSB 3/4
LOGAN          LGT RAIN  50  50 100 CALM      29.86S
BLUEFIELD      HVY RAIN  56  51  84 W17G26    29.90R
LEWISBURG      FOG       42  41  95 CALM      29.89F VSB 1/4
$$

WVZ047-041200-
Northern Mountains of West Virginia

CITY           SKY/WX    TMP DP  RH WIND       PRES   REMARKS
ELKINS         LGT RAIN  47  47 100 CALM      29.87S
$$

WVZ052-041200-
Eastern Panhandle of West Virginia

CITY           SKY/WX    TMP DP  RH WIND       PRES   REMARKS
MARTINSBURG    CLOUDY    37  34  89 NE3       29.84R FOG
PETERSBURG     CLOUDY    43  43 100 SE3       29.85S FOG
$$


USA.gov is the U.S. government's official web portal to all federal, state and local government web resources and services.